Powrót do katalogu

CZ-7A R/B

AktywnyHEO
NORAD 67303·ROCKET BODY·🇨🇳 China

Wystrzelony Dec 30, 2025 z Wenchang Space Launch Site

Loading…

Następne Przeloty (najbliższe 24 godziny)

TLE

ŚwieżeSource: Space-Track

Epoka: Sep 14, 2026, 13:37 UTC

1 67303U 25315B   26257.56767792  .00066862  10396-5  23477-2 0  9993
2 67303  19.7842 347.0149 7099150  26.1948 356.6900  2.55554094  6454

Śledź CZ-7A R/B w czasie rzeczywistym z AllMySat

Download on the App Store